• In Belgien
  • Länderverzeichnis
  • Für 7 Tage
  • Wassertemperatur
  • Satellitenkarten
  • Wetterkarte
  • Widgets
  • user-avatar
    Anmelden

    Stündliche Wetter Kerkira

    Heute, 24 Oktober, Dienstag

    Zeit Temperatur Niederschläge Wind Luftdruck Luftfeuchtigkeit
    00:00 +12°C° 0,3 mm 7 m/S 752 mmHg 82%
    01:00 +12°C° 0,3 mm 7 m/S 752 mmHg 83%
    02:00 +12°C° 0,3 mm 7 m/S 752 mmHg 83%
    03:00 +12°C° 0,3 mm 7 m/S 752 mmHg 84%
    04:00 +11°C° 0,3 mm 6 m/S 752 mmHg 84%
    05:00 +11°C° 0,3 mm 6 m/S 752 mmHg 83%
    06:00 +13°C° 0,3 mm 6 m/S 752 mmHg 82%
    07:00 +13°C° 0,3 mm 5 m/S 752 mmHg 81%
    08:00 +14°C° 0,2 mm 5 m/S 752 mmHg 74%
    09:00 +15°C° 0,2 mm 4 m/S 752 mmHg 67%
    10:00 +18°C° 0,2 mm 4 m/S 752 mmHg 60%
    11:00 +18°C° 0,1 mm 4 m/S 753 mmHg 58%
    12:00 +19°C° 0,1 mm 5 m/S 753 mmHg 56%
    13:00 +19°C° 0,1 mm 5 m/S 753 mmHg 55%
    14:00 +19°C° 0,3 mm 6 m/S 753 mmHg 59%
    15:00 +17°C° 0,3 mm 6 m/S 753 mmHg 64%
    16:00 +16°C° 0,3 mm 6 m/S 753 mmHg 68%
    17:00 +16°C° 0,1 mm 6 m/S 753 mmHg 70%
    18:00 +15°C° 0,1 mm 5 m/S 754 mmHg 72%
    19:00 +14°C° 0,1 mm 5 m/S 754 mmHg 74%
    20:00 +14°C° 0 mm 4 m/S 755 mmHg 75%
    21:00 +13°C° 0 mm 4 m/S 755 mmHg 75%
    22:00 +13°C° 0 mm 4 m/S 756 mmHg 76%
    23:00 +13°C° 0,1 mm 4 m/S 756 mmHg 75%

    Morgen, 25 Oktober, Mittwoch

    Zeit Temperatur Niederschläge Wind Luftdruck Luftfeuchtigkeit
    00:00 +13°C° 0,1 mm 4 m/S 757 mmHg 75%
    01:00 +12°C° 0,1 mm 4 m/S 757 mmHg 75%
    02:00 +12°C° 0 mm 4 m/S 757 mmHg 75%
    03:00 +12°C° 0 mm 4 m/S 758 mmHg 76%
    04:00 +12°C° 0 mm 4 m/S 758 mmHg 76%
    05:00 +12°C° 0 mm 4 m/S 758 mmHg 75%
    06:00 +12°C° 0 mm 4 m/S 759 mmHg 75%
    07:00 +12°C° 0 mm 4 m/S 759 mmHg 75%
    08:00 +15°C° 0 mm 4 m/S 760 mmHg 66%
    09:00 +18°C° 0 mm 4 m/S 760 mmHg 57%
    10:00 +20°C° 0 mm 3 m/S 761 mmHg 49%
    11:00 +21°C° 0 mm 3 m/S 761 mmHg 46%
    12:00 +22°C° 0 mm 3 m/S 761 mmHg 44%
    13:00 +22°C° 0 mm 3 m/S 761 mmHg 42%
    14:00 +22°C° 0 mm 4 m/S 761 mmHg 45%
    15:00 +21°C° 0 mm 4 m/S 762 mmHg 49%
    16:00 +21°C° 0 mm 4 m/S 762 mmHg 52%
    17:00 +20°C° 0 mm 4 m/S 763 mmHg 54%
    18:00 +18°C° 0 mm 4 m/S 763 mmHg 57%
    19:00 +17°C° 0 mm 4 m/S 764 mmHg 60%
    20:00 +17°C° 0 mm 4 m/S 764 mmHg 62%
    21:00 +16°C° 0 mm 3 m/S 765 mmHg 64%
    22:00 +16°C° 0 mm 3 m/S 766 mmHg 66%
    23:00 +16°C° 0 mm 3 m/S 766 mmHg 68%

    übermorgen, 26 Oktober, Donnerstag

    Zeit Temperatur Niederschläge Wind Luftdruck Luftfeuchtigkeit
    00:00 +14°C° 0 mm 3 m/S 766 mmHg 69%
    01:00 +14°C° 0 mm 3 m/S 766 mmHg 70%
    02:00 +14°C° 0 mm 3 m/S 766 mmHg 70%
    03:00 +13°C° 0 mm 3 m/S 767 mmHg 71%
    04:00 +13°C° 0 mm 3 m/S 767 mmHg 71%
    05:00 +13°C° 0 mm 3 m/S 767 mmHg 71%
    06:00 +13°C° 0 mm 3 m/S 767 mmHg 70%
    07:00 +14°C° 0 mm 3 m/S 768 mmHg 69%
    08:00 +17°C° 0 mm 3 m/S 768 mmHg 61%
    09:00 +19°C° 0 mm 2 m/S 768 mmHg 54%
    10:00 +21°C° 0 mm 2 m/S 768 mmHg 46%
    11:00 +23°C° 0 mm 2 m/S 768 mmHg 44%
    12:00 +24°C° 0 mm 2 m/S 768 mmHg 42%
    13:00 +25°C° 0 mm 2 m/S 767 mmHg 40%
    14:00 +24°C° 0 mm 2 m/S 767 mmHg 45%
    15:00 +22°C° 0 mm 3 m/S 767 mmHg 50%
    16:00 +22°C° 0 mm 3 m/S 767 mmHg 54%
    17:00 +20°C° 0 mm 3 m/S 767 mmHg 57%
    18:00 +19°C° 0 mm 3 m/S 767 mmHg 61%
    19:00 +18°C° 0 mm 3 m/S 768 mmHg 64%
    20:00 +18°C° 0 mm 3 m/S 768 mmHg 63%
    21:00 +17°C° 0 mm 3 m/S 768 mmHg 63%
    22:00 +17°C° 0 mm 3 m/S 768 mmHg 62%
    23:00 +17°C° 0 mm 3 m/S 768 mmHg 61%

    27 Oktober, Freitag

    Zeit Temperatur Niederschläge Wind Luftdruck Luftfeuchtigkeit
    00:00 +16°C° 0 mm 3 m/S 767 mmHg 60%
    01:00 +16°C° 0 mm 3 m/S 767 mmHg 60%
    02:00 +16°C° 0 mm 2 m/S 767 mmHg 59%
    03:00 +16°C° 0 mm 2 m/S 766 mmHg 59%
    04:00 +16°C° 0 mm 2 m/S 766 mmHg 59%
    05:00 +16°C° 0 mm 2 m/S 766 mmHg 59%
    06:00 +16°C° 0 mm 2 m/S 766 mmHg 59%
    07:00 +16°C° 0 mm 2 m/S 766 mmHg 59%
    08:00 +18°C° 0 mm 2 m/S 766 mmHg 53%
    09:00 +22°C° 0 mm 1 m/S 765 mmHg 47%
    10:00 +24°C° 0 mm 1 m/S 765 mmHg 42%
    11:00 +24°C° 0 mm 2 m/S 764 mmHg 41%
    12:00 +25°C° 0 mm 2 m/S 764 mmHg 41%
    13:00 +25°C° 0 mm 3 m/S 763 mmHg 40%
    14:00 +25°C° 0 mm 3 m/S 763 mmHg 45%
    15:00 +24°C° 0 mm 3 m/S 762 mmHg 51%
    16:00 +22°C° 0 mm 3 m/S 762 mmHg 57%
    17:00 +21°C° 0 mm 2 m/S 761 mmHg 62%
    18:00 +19°C° 0 mm 2 m/S 761 mmHg 67%
    19:00 +19°C° 0 mm 1 m/S 761 mmHg 72%
    20:00 +19°C° 0 mm 1 m/S 761 mmHg 73%
    21:00 +18°C° 0 mm 1 m/S 761 mmHg 75%
    22:00 +18°C° 0 mm 1 m/S 760 mmHg 76%
    23:00 +18°C° 0 mm 1 m/S 760 mmHg 78%

    28 Oktober, Samstag

    Zeit Temperatur Niederschläge Wind Luftdruck Luftfeuchtigkeit
    00:00 +16°C° 0 mm 1 m/S 759 mmHg 80%
    01:00 +16°C° 0 mm 1 m/S 759 mmHg 82%
    02:00 +16°C° 0 mm 1 m/S 758 mmHg 83%
    03:00 +15°C° 0 mm 1 m/S 758 mmHg 84%
    04:00 +15°C° 0 mm 2 m/S 758 mmHg 85%
    05:00 +15°C° 0 mm 2 m/S 757 mmHg 83%
    06:00 +15°C° 0 mm 2 m/S 757 mmHg 80%
    07:00 +16°C° 0 mm 2 m/S 757 mmHg 78%
    08:00 +17°C° 0 mm 2 m/S 757 mmHg 70%
    09:00 +19°C° 0 mm 2 m/S 757 mmHg 62%
    10:00 +21°C° 0 mm 2 m/S 757 mmHg 54%
    11:00 +21°C° 0 mm 2 m/S 757 mmHg 53%
    12:00 +21°C° 0 mm 2 m/S 756 mmHg 52%
    13:00 +23°C° 0 mm 2 m/S 756 mmHg 51%
    14:00 +21°C° 0 mm 2 m/S 756 mmHg 55%
    15:00 +21°C° 0 mm 2 m/S 755 mmHg 59%
    16:00 +20°C° 0 mm 2 m/S 755 mmHg 63%
    17:00 +19°C° 0 mm 2 m/S 755 mmHg 69%
    18:00 +18°C° 0 mm 2 m/S 755 mmHg 75%
    19:00 +17°C° 0 mm 2 m/S 755 mmHg 80%
    20:00 +17°C° 0 mm 2 m/S 755 mmHg 81%
    21:00 +16°C° 0 mm 3 m/S 755 mmHg 82%
    22:00 +16°C° 0 mm 3 m/S 755 mmHg 83%
    23:00 +16°C° 0,1 mm 3 m/S 754 mmHg 82%

    29 Oktober, Sonntag

    Zeit Temperatur Niederschläge Wind Luftdruck Luftfeuchtigkeit
    00:00 +15°C° 0,1 mm 4 m/S 754 mmHg 82%
    01:00 +14°C° 0,1 mm 4 m/S 753 mmHg 81%
    02:00 +15°C° 0,1 mm 4 m/S 753 mmHg 78%
    03:00 +15°C° 0,1 mm 4 m/S 753 mmHg 75%
    04:00 +15°C° 0,1 mm 4 m/S 752 mmHg 72%
    05:00 +15°C° 0,1 mm 4 m/S 752 mmHg 74%
    06:00 +17°C° 0,1 mm 4 m/S 752 mmHg 76%
    07:00 +16°C° 0,1 mm 5 m/S 751 mmHg 78%
    08:00 +17°C° 0,2 mm 5 m/S 751 mmHg 76%
    09:00 +19°C° 0,2 mm 5 m/S 751 mmHg 75%
    10:00 +20°C° 0,2 mm 6 m/S 750 mmHg 73%
    11:00 +20°C° 0,5 mm 6 m/S 750 mmHg 75%
    12:00 +20°C° 0,5 mm 6 m/S 749 mmHg 76%
    13:00 +20°C° 0,5 mm 6 m/S 749 mmHg 78%
    14:00 +18°C° 0,8 mm 7 m/S 748 mmHg 81%
    15:00 +18°C° 0,8 mm 7 m/S 748 mmHg 83%
    16:00 +18°C° 0,8 mm 7 m/S 748 mmHg 86%
    17:00 +18°C° 1,2 mm 8 m/S 747 mmHg 88%
    18:00 +17°C° 1,2 mm 8 m/S 747 mmHg 89%
    19:00 +17°C° 1,2 mm 9 m/S 747 mmHg 90%
    20:00 +17°C° 1,4 mm 9 m/S 747 mmHg 90%
    21:00 +18°C° 1,4 mm 10 m/S 747 mmHg 89%
    22:00 +18°C° 1,4 mm 11 m/S 747 mmHg 89%
    23:00 +17°C° 0,9 mm 10 m/S 747 mmHg 88%

    30 Oktober, Montag

    Zeit Temperatur Niederschläge Wind Luftdruck Luftfeuchtigkeit
    00:00 +17°C° 0,9 mm 10 m/S 747 mmHg 86%
    01:00 +17°C° 0,9 mm 9 m/S 747 mmHg 85%
    02:00 +16°C° 0,5 mm 9 m/S 747 mmHg 87%
    03:00 +15°C° 0,5 mm 9 m/S 747 mmHg 89%
    04:00 +13°C° 0,5 mm 8 m/S 748 mmHg 91%
    05:00 +13°C° 0,2 mm 9 m/S 749 mmHg 88%
    06:00 +12°C° 0,2 mm 9 m/S 749 mmHg 85%
    07:00 +12°C° 0,2 mm 9 m/S 750 mmHg 83%
    08:00 +12°C° 0,2 mm 9 m/S 751 mmHg 78%
    09:00 +12°C° 0,2 mm 9 m/S 752 mmHg 73%
    10:00 +13°C° 0,2 mm 10 m/S 753 mmHg 68%
    11:00 +13°C° 0,3 mm 10 m/S 753 mmHg 67%
    12:00 +13°C° 0,3 mm 10 m/S 753 mmHg 66%
    13:00 +13°C° 0,3 mm 10 m/S 754 mmHg 65%
    14:00 +12°C° 0,6 mm 10 m/S 754 mmHg 68%
    15:00 +11°C° 0,6 mm 10 m/S 754 mmHg 71%
    16:00 +11°C° 0,6 mm 10 m/S 754 mmHg 74%
    17:00 +11°C° 0,3 mm 10 m/S 755 mmHg 76%
    18:00 +10°C° 0,3 mm 9 m/S 756 mmHg 77%
    19:00 +10°C° 0,3 mm 9 m/S 757 mmHg 79%
    20:00 +10°C° 0,1 mm 9 m/S 757 mmHg 80%
    21:00 +9°C° 0,1 mm 8 m/S 758 mmHg 81%
    22:00 +9°C° 0,1 mm 8 m/S 759 mmHg 82%
    23:00 +9°C° 0,1 mm 8 m/S 759 mmHg 82%
    Mehr zeigen